Location: Kumla
(59.1265°N, 15.1401°E)
Time: 09:35:26
(UTC+01:00)

Transit 2A - Pass Details

Date: 05 December 2023
Orbit: 600 x 953 km, 66.7° (Epoch: 22 February)

Event Time Altitude Azimuth Distance (km) Brightness Sun altitude
Rises 15:59:54 0° 207° (SSW) 3,136 10.4 -6.2°
Reaches altitude 10° 16:02:24 10° 202° (SSW) 2,163 9.3 -6.4°
Maximum altitude 16:07:04 49° 129° (SE) 857 6.2 -6.9°
Drops below altitude 10° 16:11:25 10° 55° (NE) 2,012 7.5 -7.4°
Enters shadow 16:11:34 - 54° (NE) 2,067 7.5 -7.4°
Sets 16:13:40 0° 50° (NE) 2,895 - -7.7°
